This is the latest recevied weather packets stored in our database for station/object KI4NG. If no packets are shown the sender has not sent any weather packets the latest 10 day(s).
| Time | Temp. | Humidity | Pressure | Rain* | Wind** | Luminosity | Snow |
|---|---|---|---|---|---|---|---|
| 1778062572 | 15.56° C | 99% | 1009.7 hPa | 7.87 mm | - | 0 W/m² | - |
| 1778062269 | 15.56° C | 98% | 1009.5 hPa | 4.32 mm | - | 0 W/m² | - |
| 1778061967 | 15.56° C | 98% | 1009.6 hPa | 3.05 mm | - | 0 W/m² | - |
| 1778061665 | 15.56° C | 97% | 1009.3 hPa | 1.78 mm | - | 0 W/m² | - |
| 1778061364 | 15.56° C | 97% | 1009.1 hPa | 3.05 mm | - | 0 W/m² | - |
| 1778061060 | 15.56° C | 96% | 1009.2 hPa | 1.27 mm | - | 0 W/m² | - |
| 1778060757 | 15.56° C | 96% | 1009.3 hPa | 1.78 mm | - | 0 W/m² | - |
| 1778060455 | 16.11° C | 94% | 1009.5 hPa | 1.78 mm | - | 0 W/m² | - |
| 1778060153 | 16.11° C | 92% | 1009.4 hPa | 1.78 mm | - | 0 W/m² | - |
| 1778059850 | 16.67° C | 90% | 1009.4 hPa | 1.78 mm | - | 0 W/m² | - |
| 1778059548 | 17.78° C | 86% | 1009.2 hPa | 0 mm | - | 0 W/m² | - |
| 1778059244 | 17.78° C | 81% | 1009.4 hPa | 0 mm | - | 0 W/m² | - |
| 1778058943 | 18.33° C | 80% | 1009.5 hPa | 0 mm | - | 0 W/m² | - |
| 1778058640 | 18.33° C | 79% | 1009 hPa | 0 mm | - | 0 W/m² | - |
| 1778058338 | 18.33° C | 79% | 1008.9 hPa | 0 mm | - | 0 W/m² | - |
| 1778058034 | 18.33° C | 80% | 1008.9 hPa | 0 mm | - | 0 W/m² | - |
| 1778057731 | 18.33° C | 80% | 1008.7 hPa | 0 mm | - | 0 W/m² | - |
| 1778057427 | 18.33° C | 78% | 1008.7 hPa | 0 mm | - | 0 W/m² | - |
| 1778057124 | 18.33° C | 78% | 1009 hPa | 0 mm | - | 0 W/m² | - |
| 1778056820 | 18.33° C | 77% | 1008.5 hPa | 0 mm | - | 0 W/m² | - |
| 1778056518 | 18.33° C | 77% | 1008.9 hPa | 0 mm | - | 0 W/m² | - |
| 1778056215 | 18.33° C | 77% | 1008.7 hPa | 0 mm | - | 0 W/m² | - |
| 1778055912 | 18.33° C | 78% | 1008.8 hPa | 0 mm | - | 0 W/m² | - |
| 1778055607 | 18.33° C | 77% | 1008.7 hPa | 0 mm | - | 0 W/m² | - |
| 1778055306 | 18.33° C | 76% | 1008.7 hPa | 0 mm | - | 0 W/m² | - |
* Rain latest hour (hover to see other rain measurements)
** Current wind speed in m/s (hover to see current wind gust speed)